sat.trackr.live / text

‹ back to catalog

TRANSPORTER-14 OBJECT D

NORAD 64531 · 2025-135D

PAYLOAD ACTIVE UNKNOWN

§ Identity

Operator
Country
TBD
Launch date
2025-06-23
Launch site
AFWTR
Launch vehicle
Mass (kg)
RCS (m²)

External: N2YO · Heavens-Above · Gunter

§ Orbital elements

Epoch: 2026-09-21T20:15:27.788832Z

Period
94.24 min
Inclination
97.4793°
Eccentricity
0.0004338
Mean motion
15.27998128 rev/d
Perigee alt
478.8 km
Apogee alt
484.8 km
Semi-major
6,859.9 km
B*
2.9000e-4
RAAN
21.1901°
Arg perigee
170.1847°
Mean anomaly
189.9478°
Rev number
6,967

§ Raw data

TRANSPORTER-14 OBJECT D1 64531U 25135D   26264.84407163  .00007848  00000+0  29000-3 0  99982 64531  97.4793  21.1901 0004338 170.1847 189.9478 15.27998128 69676

JSON: /api/v1/satellites/64531 · /tle

For live sub-satellite position, see the globe view (requires WebGL).

§ Visibility from observer

Set your observer location to see the next 7 days of passes ≥ 10°. The values pass through the URL so the page stays shareable.

No JS? Fill the form by hand. The geolocation button needs JavaScript.